Tiempo cada hora Abercorn

Hoy, 30 Octubre, Viernes

Tiempo Temperatura Precipitaciones Viento Presión Humedad
00:00 -4°C° 0 mm 3 mps 741 mmHg 81%
01:00 -4°C° 0 mm 3 mps 741 mmHg 81%
02:00 -4°C° 0 mm 3 mps 742 mmHg 78%
03:00 -4°C° 0 mm 3 mps 742 mmHg 75%
04:00 -4°C° 0 mm 3 mps 742 mmHg 72%
05:00 -5°C° 0 mm 3 mps 742 mmHg 72%
06:00 -5°C° 0 mm 3 mps 743 mmHg 72%
07:00 -5°C° 0 mm 3 mps 743 mmHg 72%
08:00 -4°C° 0 mm 3 mps 743 mmHg 63%
09:00 -2°C° 0 mm 3 mps 743 mmHg 54%
10:00 -1°C° 0 mm 3 mps 743 mmHg 45%
11:00 0°C° 0 mm 3 mps 743 mmHg 42%
12:00 +1°C° 0 mm 3 mps 744 mmHg 39%
13:00 +2°C° 0 mm 3 mps 744 mmHg 36%
14:00 +1°C° 0 mm 3 mps 744 mmHg 40%
15:00 +2°C° 0 mm 2 mps 744 mmHg 44%
16:00 +1°C° 0 mm 2 mps 745 mmHg 48%
17:00 -1°C° 0 mm 2 mps 745 mmHg 55%
18:00 0°C° 0 mm 1 mps 746 mmHg 61%
19:00 -2°C° 0 mm 1 mps 747 mmHg 68%
20:00 -2°C° 0 mm 1 mps 748 mmHg 69%
21:00 -2°C° 0 mm 1 mps 748 mmHg 70%
22:00 -3°C° 0 mm 0 mps 749 mmHg 72%
23:00 -3°C° 0 mm 0 mps 749 mmHg 72%

Mañana, 31 Octubre, Sábado

Tiempo Temperatura Precipitaciones Viento Presión Humedad
00:00 -4°C° 0 mm 0 mps 750 mmHg 73%
01:00 -4°C° 0 mm 0 mps 751 mmHg 74%
02:00 -4°C° 0 mm 0 mps 751 mmHg 74%
03:00 -4°C° 0 mm 0 mps 752 mmHg 75%
04:00 -3°C° 0 mm 1 mps 752 mmHg 75%
05:00 -3°C° 0 mm 1 mps 753 mmHg 74%
06:00 -2°C° 0 mm 1 mps 753 mmHg 72%
07:00 -2°C° 0 mm 1 mps 754 mmHg 70%
08:00 0°C° 0 mm 1 mps 754 mmHg 61%
09:00 +1°C° 0 mm 1 mps 754 mmHg 51%
10:00 +2°C° 0 mm 2 mps 755 mmHg 41%
11:00 +3°C° 0 mm 2 mps 754 mmHg 38%
12:00 +4°C° 0 mm 2 mps 754 mmHg 36%
13:00 +5°C° 0 mm 2 mps 754 mmHg 33%
14:00 +5°C° 0 mm 1 mps 753 mmHg 37%
15:00 +4°C° 0 mm 1 mps 753 mmHg 41%
16:00 +3°C° 0 mm 1 mps 753 mmHg 46%
17:00 +2°C° 0 mm 1 mps 753 mmHg 47%
18:00 +1°C° 0 mm 1 mps 752 mmHg 48%
19:00 -2°C° 0 mm 2 mps 752 mmHg 49%
20:00 -2°C° 0 mm 2 mps 752 mmHg 54%
21:00 -2°C° 0 mm 2 mps 751 mmHg 59%
22:00 -3°C° 0 mm 2 mps 751 mmHg 64%
23:00 -3°C° 0 mm 2 mps 751 mmHg 69%

Pasado mañana, 1 Noviembre, Domingo

Tiempo Temperatura Precipitaciones Viento Presión Humedad
00:00 -4°C° 0 mm 3 mps 750 mmHg 75%
01:00 -4°C° 0 mm 3 mps 749 mmHg 80%
02:00 -4°C° 0 mm 3 mps 749 mmHg 80%
03:00 -4°C° 0 mm 3 mps 748 mmHg 81%
04:00 -4°C° 0 mm 3 mps 748 mmHg 81%
05:00 -2°C° 0 mm 3 mps 747 mmHg 81%
06:00 -2°C° 0 mm 4 mps 746 mmHg 81%
07:00 -1°C° 0 mm 4 mps 745 mmHg 81%
08:00 +1°C° 0 mm 5 mps 744 mmHg 75%
09:00 +3°C° 0 mm 6 mps 743 mmHg 68%
10:00 +6°C° 0 mm 7 mps 742 mmHg 62%
11:00 +6°C° 0 mm 7 mps 741 mmHg 62%
12:00 +8°C° 0 mm 7 mps 739 mmHg 62%
13:00 +9°C° 0 mm 7 mps 738 mmHg 62%
14:00 +8°C° 0 mm 6 mps 737 mmHg 67%
15:00 +7°C° 0 mm 5 mps 736 mmHg 72%
16:00 +7°C° 0 mm 4 mps 735 mmHg 78%
17:00 +7°C° 0.2 mm 3 mps 734 mmHg 83%
18:00 +7°C° 0.2 mm 3 mps 734 mmHg 88%
19:00 +6°C° 0.2 mm 2 mps 733 mmHg 94%
20:00 +6°C° 0.2 mm 2 mps 733 mmHg 94%
21:00 +6°C° 0.2 mm 2 mps 732 mmHg 94%
22:00 +5°C° 0.2 mm 2 mps 731 mmHg 94%
23:00 +5°C° 0.4 mm 2 mps 731 mmHg 95%

2 Noviembre, Lunes

Tiempo Temperatura Precipitaciones Viento Presión Humedad
00:00 +4°C° 0.4 mm 2 mps 730 mmHg 96%
01:00 +2°C° 0.4 mm 3 mps 729 mmHg 96%
02:00 +2°C° 0.5 mm 3 mps 729 mmHg 96%
03:00 +1°C° 0.5 mm 3 mps 728 mmHg 95%
04:00 0°C° 0.5 mm 4 mps 728 mmHg 94%
05:00 -1°C° 0.2 mm 4 mps 728 mmHg 95%
06:00 -1°C° 0.2 mm 4 mps 728 mmHg 96%
07:00 -1°C° 0.2 mm 4 mps 728 mmHg 96%
08:00 -2°C° 0.7 mm 5 mps 729 mmHg 96%
09:00 -3°C° 0.7 mm 6 mps 729 mmHg 95%
10:00 -4°C° 0.7 mm 7 mps 730 mmHg 94%
11:00 -4°C° 0.7 mm 6 mps 731 mmHg 88%
12:00 -4°C° 0.7 mm 6 mps 731 mmHg 82%
13:00 -5°C° 0.7 mm 6 mps 732 mmHg 76%
14:00 -5°C° 0 mm 6 mps 733 mmHg 76%
15:00 -5°C° 0 mm 6 mps 734 mmHg 77%
16:00 -5°C° 0 mm 6 mps 734 mmHg 77%
17:00 -6°C° 0 mm 5 mps 735 mmHg 80%
18:00 -5°C° 0 mm 4 mps 735 mmHg 83%
19:00 -7°C° 0 mm 4 mps 735 mmHg 86%
20:00 -5°C° 0.6 mm 4 mps 735 mmHg 89%
21:00 -5°C° 0.6 mm 4 mps 734 mmHg 92%
22:00 -5°C° 0.6 mm 3 mps 733 mmHg 95%
23:00 -5°C° 1.2 mm 3 mps 733 mmHg 96%

3 Noviembre, Martes

Tiempo Temperatura Precipitaciones Viento Presión Humedad
00:00 -4°C° 1.2 mm 2 mps 732 mmHg 96%
01:00 -1°C° 1.2 mm 1 mps 731 mmHg 97%
02:00 -1°C° 1.6 mm 1 mps 732 mmHg 97%
03:00 -3°C° 1.6 mm 2 mps 732 mmHg 97%
04:00 -3°C° 1.6 mm 2 mps 733 mmHg 97%
05:00 -4°C° 0.2 mm 2 mps 734 mmHg 97%
06:00 -4°C° 0.2 mm 2 mps 735 mmHg 97%
07:00 -2°C° 0.2 mm 1 mps 737 mmHg 97%
08:00 -4°C° 0.3 mm 2 mps 738 mmHg 94%
09:00 -5°C° 0.3 mm 3 mps 739 mmHg 90%
10:00 -5°C° 0.3 mm 3 mps 740 mmHg 86%
11:00 -5°C° 0 mm 4 mps 741 mmHg 83%
12:00 -5°C° 0 mm 4 mps 742 mmHg 80%
13:00 -4°C° 0 mm 4 mps 743 mmHg 76%
14:00 -5°C° 0 mm 4 mps 744 mmHg 79%
15:00 -6°C° 0 mm 3 mps 745 mmHg 81%
16:00 -5°C° 0 mm 2 mps 746 mmHg 84%
17:00 -6°C° 0 mm 2 mps 748 mmHg 85%
18:00 -6°C° 0 mm 1 mps 749 mmHg 87%
19:00 -7°C° 0 mm 1 mps 750 mmHg 89%
20:00 -8°C° 0 mm 1 mps 751 mmHg 88%
21:00 -8°C° 0 mm 1 mps 751 mmHg 88%
22:00 -8°C° 0 mm 0 mps 752 mmHg 87%
23:00 -9°C° 0 mm 1 mps 752 mmHg 87%

4 Noviembre, Miércoles

Tiempo Temperatura Precipitaciones Viento Presión Humedad
00:00 -9°C° 0 mm 1 mps 753 mmHg 87%
01:00 -9°C° 0 mm 1 mps 753 mmHg 87%
02:00 -9°C° 0 mm 1 mps 754 mmHg 87%
03:00 -9°C° 0 mm 1 mps 754 mmHg 86%
04:00 -9°C° 0 mm 2 mps 755 mmHg 86%
05:00 -9°C° 0 mm 2 mps 755 mmHg 87%
06:00 -9°C° 0 mm 2 mps 755 mmHg 87%
07:00 -8°C° 0 mm 2 mps 756 mmHg 87%
08:00 -6°C° 0 mm 2 mps 755 mmHg 84%
09:00 -5°C° 0 mm 3 mps 755 mmHg 80%
10:00 -2°C° 0 mm 3 mps 755 mmHg 77%
11:00 -1°C° 0 mm 3 mps 754 mmHg 80%
12:00 0°C° 0 mm 3 mps 754 mmHg 82%
13:00 +1°C° 0 mm 3 mps 753 mmHg 85%
14:00 +1°C° 0 mm 3 mps 753 mmHg 86%
15:00 +1°C° 0 mm 3 mps 752 mmHg 86%
16:00 +1°C° 0 mm 3 mps 752 mmHg 87%
17:00 0°C° 0 mm 3 mps 751 mmHg 86%
18:00 0°C° 0 mm 3 mps 751 mmHg 86%
19:00 -1°C° 0 mm 4 mps 751 mmHg 86%
20:00 -1°C° 0 mm 4 mps 751 mmHg 87%
21:00 0°C° 0 mm 3 mps 751 mmHg 88%
22:00 -1°C° 0 mm 3 mps 751 mmHg 89%
23:00 -1°C° 0 mm 3 mps 750 mmHg 89%
Mostrar más

Necesitamos Su Consentimiento

Meteoprog y nuestros Proveedores de Servicios pueden almacenar y acceder a sus datos personales como cookies, identificadores de dispositivo u otras tecnologías similares de su dispositivo y procesar dichos datos para personalizar contenido y anuncios, además de ofrecer funciones de redes sociales y analizar el tráfico.

  • Almacenar y/o acceder a información en su dispositivo

    Se puede almacenar o acceder a cookies, identificadores de dispositivo u otra información de su dispositivo para los fines anteriormente indicados.

  • Anuncios y contenido personalizados, medición de anuncios y contenido, percepciones del público, y desarrollo de productos

    Los anuncios y el contenido pueden personalizarse en base a su perfil. Se pueden añadir más datos para personalizar mejor los anuncios y contenidos. Se puede medir el rendimiento de los anuncios y contenidos. Se puede obtener la percepción sobre el público que ha visto los anuncios y contenidos. Dichos datos pueden usarse para desarrollar o mejorar la experiencia del usuario, sistemas y software.

Al hacer clic en ‘Estoy De Acuerdo’ usted permitirá el uso de las cookies, identificadores de dispositivo, balizas web u otras tecnologías similares indicadas. Su configuración puede cambiarse desde el navegador de su dispositivo.

Para ciertos fines, los intereses legítimos pueden ser considerados por encima del consentimiento. Puede leer más sobre ello en nuestra Política de Privacidad y Cookies.